Location: Saluda
(35.2377°N, 82.3468°W)
Time: 14:14:38
(UTC+00:00)

SR - Pass Details

Date: 07 October 2022
Orbit: 577 x 875 km, 66.7° (Epoch: 28 November)

Event Time Altitude Azimuth Distance (km) Brightness Sun altitude
Rises 12:02:34 0° 307° (NW) 3,187 ? 5.9°
Reaches altitude 10° 12:07:37 10° 265° (W) 2,155 ? 6.9°
Maximum altitude 12:08:04 10° 259° (W) 2,137 ? 7.0°
Drops below altitude 10° 12:08:32 10° 254° (WSW) 2,135 ? 7.1°
Sets 12:13:17 0° 209° (SSW) 2,946 ? 8.1°
